Regional Weather Roundup
Issued by NWS

Home | Current Version | Previous Version | Text Only | Print | Product List | Glossary Off
Versions: 1 2 3 4 5 6 7 8 9 10 11 12 13 14 15 16 17 18 19 20 21 22 23 24 25 26 27 28 29 30 31 32 33 34 35 36 37 38 39 40 41 42 43 44 45 46 47 48 49 50

000
ASUS44 KFWD 172315
RWRTX
NORTH TEXAS HOURLY WEATHER ROUNDUP
NATIONAL WEATHER SERVICE FORT WORTH TX
500 PM CST WED DEC 17 2014

NOTE: "FAIR" INDICATES FEW OR NO CLOUDS BELOW 12,000 FEET WITH NO
SIGNIFICANT WEATHER AND/OR OBSTRUCTIONS TO VISIBILITY.

TXZ118-119-180000-
DALLAS/FORT WORTH METROPLEX

CITY           SKY/WX    TMP DP  RH WIND       PRES   REMARKS
DFW AIRPORT    LGT RAIN  43  40  89 NE8       30.12S FOG     WCI  38
DALLAS LOVE    TSTM      44  41  89 N5        30.13R FOG
FTW MEACHAM    LGT RAIN  45  42  89 N7        30.11R FOG
DAL-EXECUTIVE  LGT RAIN  46  42  86 E6        30.10S FOG
FTW-ALLIANCE   LGT RAIN  43  41  93 NE6       30.12R FOG     WCI  39
FTW-SPINKS     LGT RAIN  45  43  93 NW5       30.13R
ARLINGTON      LGT RAIN  46  40  79 CALM      30.11S
GRAND PRAIRIE  CLOUDY    45  43  93 E3        30.12F
ADDISON        RAIN      43  39  87 NE8       30.12F WCI  38
MESQUITE       RAIN      45  39  81 CALM      30.14R
LANCASTER      HVY RAIN  44  40  87 CALM      30.13F
$$

TXZ091>094-102>105-117-120-121-131>134-180000-
NORTH CENTRAL TEXAS

CITY           SKY/WX    TMP DP  RH WIND       PRES   REMARKS
SHRMAN/DENISON CLOUDY    39  39 100 CALM      30.16R
GAINESVILLE    RAIN      38  38  97 NE5       30.16R WCI  35
BOWIE          RAIN      39  39  99 E3        30.11S
BRIDGEPORT     DRIZZLE   42  42 100 E3        30.13S
DECATUR        CLOUDY    40  40  99 E6        30.12R FOG     WCI  36
DENTON         LGT RAIN  42  39  89 E6        30.13R FOG     WCI  38
MCKINNEY       LGT RAIN  42  39  89 CALM      30.15R
GREENVILLE     CLOUDY    43  36  75 CALM      30.15R
ROCKWALL       LGT RAIN  43  40  91 CALM      30.13R
TERRELL        HVY RAIN  46  41  82 NW6       30.15R
WAXAHACHIE     RAIN      43  43 100 E6        30.10F WCI  40
CLEBURNE       CLOUDY    45  43  93 CALM      30.12R
GRANBURY       DRIZZLE   47  42  85 E3        30.11S
$$

TXZ083>090-098>101-113>116-127>130-139>142-154-155-180000-
WESTERN NORTH TEXAS

CITY           SKY/WX    TMP DP  RH WIND       PRES   REMARKS
WICHITA FALLS  DRIZZLE   40  38  93 E9        30.10R WCI  34
WF-KICKAPOO    CLOUDY    40  40  98 E8        30.11R WCI  35
VERNON         CLOUDY    41  37  85 SE7       30.10R WCI  36
ABILENE        CLOUDY    51  40  65 S6        30.03R
ABILENE-DYESS  CLOUDY    52  43  71 S7        30.02R
BRECKENRIDGE   CLOUDY    47  41  78 SE8       30.05R
GRAHAM         CLOUDY    42  41  98 E5        30.06R FOG     WCI  39
MINERAL WELLS  LGT RAIN  43  41  93 E8        30.08S FOG     WCI  38
STEPHENVILLE   CLOUDY    45  41  86 CALM      30.09S
COMANCHE       CLOUDY    46  46 100 S7        30.05F
BROWNWOOD      CLOUDY    46  43  87 S9        30.05S
COLEMAN        CLOUDY    49  44  83 S9        30.04R
$$

TXZ143>147-156>162-174-175-180000-
CENTRAL TEXAS

CITY           SKY/WX    TMP DP  RH WIND       PRES   REMARKS
WACO           CLOUDY    48  43  82 SE3       30.09R
WACO-TSTC      CLOUDY    48  45  87 CALM      30.10R
WACO-MCGREGOR  CLOUDY    48  37  66 SE7       30.09F
HILLSBORO      LGT RAIN  46  41  85 CALM      30.10R
CORSICANA      LGT RAIN  49  40  71 SE6       30.11R
MEXIA          HVY RAIN  47  42  82 SE3       30.09R
HEARNE         CLOUDY    48  45  88 N5        30.10R
CAMERON        CLOUDY    49  46  90 NW5       30.11R
TEMPLE         CLOUDY    46  39  76 E3        30.07F
KILLEEN        CLOUDY    46  44  92 W1        30.07R
KILLEEN-SKYLRK CLOUDY    46  37  71 E6        30.04F
FORT HOOD      CLOUDY    47  43  85 E7        30.05F
GATESVILLE     CLOUDY    48  43  81 CALM      30.09S
HAMILTON       CLOUDY    48  42  80 S9        30.06F
LAMPASAS       CLOUDY    47  45  93 CALM      30.05F
$$

TXZ095>097-106>112-122>126-135>138-148>153-164>167-180000-
EAST TEXAS

CITY           SKY/WX    TMP DP  RH WIND       PRES   REMARKS
PARIS          CLOUDY    39  34  81 E13       30.13F WCI  32
SULPHUR SPRNGS CLOUDY    42  38  85 E12       30.11F WCI  35
MOUNT PLEASANT CLOUDY    44  36  73 E10       30.16R WCI  38
MINEOLA        CLOUDY    46  37  71 E5        30.12S
TYLER          CLOUDY    48  38  68 E9        30.10F
LONGVIEW       CLOUDY    48  38  68 E7        30.13S
MARSHALL       CLOUDY    48  39  71 E3        30.17S
ATHENS         CLOUDY    46  37  71 E7        30.09S
PALESTINE      LGT RAIN  47  44  87 E8G18     30.08F
JACKSONVILLE   CLOUDY    49  40  72 SE5       30.14R
HENDERSON      CLOUDY    47  38  73 E7        30.13S
NACOGDOCHES    MOCLDY    48  39  71 CALM      30.15R
LUFKIN         CLOUDY    54  43  66 CALM      30.14R
$$

SUPPLEMENTAL OBSERVATIONS (CENTRAL)

CITY           SKY/WX    TMP DP  RH WIND       PRES   REMARKS
LAKE TEXOMA      N/A     39  36  87 N6          N/A  WCI  35
CADDO GRASSLND   N/A     39  36  87 NE5         N/A  WCI  36
PAT MAYSE LAKE   N/A     37  34  87 VRB2        N/A
GREENVILLE       N/A     41  36  81 N6G14       N/A  WCI  37
CEDAR HILL       N/A     45  39  81 NE2         N/A
ATHENS           N/A     48  39  71 E9          N/A
PALESTINE        N/A     46  41  81 SE8G20      N/A
LAKE LIMESTONE   N/A     46  43  87 SW3G17      N/A
MCGREGOR         N/A     48  41  76 SE6         N/A
TEMPLE           N/A     46  41  81 E3          N/A
$$

SUPPLEMENTAL OBSERVATIONS (WEST)

CITY           SKY/WX    TMP DP  RH WIND       PRES   REMARKS
POSSUM KINGDOM   N/A     43  37  81 E6          N/A  WCI  39
LBJ GRASSLAND    N/A     41  37  87 NE5         N/A  WCI  38
GRANBURY         N/A     46  41  81 E3          N/A
COMANCHE         N/A     46  41  81 S3          N/A
HAMBY            N/A     50  39  66 S7          N/A
IVIE RESERVOIR   N/A     48  43  81 SE8         N/A
COLORADO BEND    N/A     46  43  87 SE6         N/A
$$

SUPPLEMENTAL OBSERVATIONS (EAST)

CITY           SKY/WX    TMP DP  RH WIND       PRES   REMARKS
CLARKSVILLE      N/A     39  34  81 E7          N/A  WCI  34
TEXARKANA        N/A     43  34  70 NE2         N/A
LINDEN           N/A     45  36  70 E5          N/A
CADDO LAKE       N/A     46  37  71 E2          N/A
GILMER           N/A     45  39  81 E5          N/A
HENDERSON        N/A     46  37  71 SE7         N/A
LUFKIN           N/A     52  43  71 MISG        N/A
N SABINE NF      N/A     48  41  76 MISG        N/A
S SABINE NF      N/A     52  41  66 E2          N/A
$$

SUPPLEMENTAL OBSERVATIONS ARE A COLLECTION OF AUTOMATED INSTRUMENTS
THAT ARE MAINTAINED BY A VARIETY OF FEDERAL AND STATE AGENCIES.
CERTAIN ELEMENTS...SUCH AS HUMIDITY VALUES AND SUSTAINED WIND
SPEEDS...MAY BE APPROXIMATED.



USA.gov is the U.S. government's official web portal to all federal, state and local government web resources and services.